Weather in Khunzakh

Russia / Republic of Dagestan     42°32′37″N   46°42′21″E
temp.,
°C
wind,
m/s
gust,
m/s
humid.,
%
clouds,
%
prec.,
mm/h
press.,
hPa
HPBL,
m
12 may, wed
wed1200:00+6wsw22671 0.0 101314
03:00+6wsw33630 0.0 101326
06:00+9wsw22650 0.0 101356
09:00+15ene33470 0.0 1012821
12:00+17ene44460 0.0 10111081
15:00+16ne42560 0.0 1012714
18:00+13ene22693 0.0 1014187
21:00+10wsw22620 0.0 101613
13 may, thu
thu1300:00+10wsw32441 0.0 101517
03:00+9wsw33464 0.0 101525
06:00+11wsw335515 0.0 101553
09:00+19ese22330 0.0 10141030
12:00+22ene24275 0.0 10132540
15:00+23ene222549 0.0 10123069
18:00+18ne226116 0.0 101470
21:00+14sw22654 0.1 101714
14 may, fri
fri1400:00+12wsw335397 0.0 101727
03:00+11wsw33505 0.0 101727
06:00+12wsw335047 0.0 101742
09:00+20se12272 0.0 1015776
12:00+23ene34268 0.0 10142226
15:00+23ene332993 0.0 10132793
18:00+20e225229 0.0 101447
21:00+15sw325628 0.1 101629
15 may, sat
sat1500:00+12sw33615 0.1 101736
03:00+11wsw33670 0.1 101732
06:00+13wsw23640 0.0 101781
09:00+20e11350 0.0 1014781
12:00+22ene32332 0.0 10142031
15:00+22ne323766 0.0 10132284
18:00+15wsw337476 1.9 1016112
21:00+13wsw3273100 2.5 101728
16 may, sun
sun1600:00+12wsw227486 0.0 101614
03:00+11wsw227532 0.0 101618
06:00+12sw22693 0.0 101575
09:00+18se12440 0.0 1013990
12:00+22ene34354 0.0 10102080
15:00+22e34342 0.0 10091818
18:00+19ese12540 0.0 101069
21:00+12sw43451 0.0 101340